Regional Weather Roundup
Issued by NWS

Home | Current Version | Previous Version | Text Only | Print | Product List | Glossary On
Versions: 1 2 3 4 5 6 7 8 9 10 11 12 13 14 15 16 17 18 19 20 21 22 23 24 25 26 27 28 29 30 31 32 33 34 35 36 37 38 39 40 41 42 43 44 45 46 47 48 49 50
000
ASUS44 KOUN 291710
RWROK

WEATHER ROUNDUP FOR OKLAHOMA
NATIONAL WEATHER SERVICE NORMAN OK
1200 PM CDT SUN MAY 29 2016

NOTE: "FAIR" INDICATES FEW OR NO CLOUDS BELOW 12,000 FEET WITH NO
      SIGNIFICANT WEATHER AND/OR OBSTRUCTIONS TO VISIBILITY.

OKZ001>007-009>012-014-015-017-291800-
NORTHWEST OKLAHOMA AND THE PANHANDLE

CITY           SKY/WX    TMP DP  RH WIND       PRES   REMARKS
GAGE           CLOUDY    67  56  67 E12       30.21F
GUYMON         CLOUDY    65  57  75 S15       30.14F
ENID/WOODRING  PTSUNNY   86  57  37 SW10      30.11R
$$

OKZ016-021>023-033>039-044-045-291800-
SOUTHWEST OKLAHOMA

CITY           SKY/WX    TMP DP  RH WIND       PRES   REMARKS
LAWTON/REGL    SUNNY     83  58  42 VRB5      30.13F
LAWTON/FT SILL SUNNY     81  62  52 NE5       30.13F
CLINTON        SUNNY     82  54  37 VRB5      30.19R
HOBART         SUNNY     82  55  39 S7        30.16S
ALTUS AFB      SUNNY     81  58  45 VRB2      30.13S
$$

OKZ018>020-024>031-291800-
CENTRAL OKLAHOMA

CITY           SKY/WX    TMP DP  RH WIND       PRES   REMARKS
OKLAHOMA CITY  MOSUNNY   83  59  44 VRB7      30.15S
OKC/WILEY POST SUNNY     83  59  44 SW6       30.15S
OKC/TINKER AFB SUNNY     82  56  41 SW9       30.14S
STILLWATER     SUNNY     83  64  52 S7        30.11F
GUTHRIE        SUNNY     84  60  44 SW9       30.13S
$$

OKZ008-013-054>072-291800-
NORTHEAST OKLAHOMA

CITY           SKY/WX    TMP DP  RH WIND       PRES   REMARKS
TULSA          PTSUNNY   85  69  58 NW6       30.10F
TULSA/JONES    SUNNY     84  66  54 W3        30.12S
PONCA CITY     CLOUDY    82  66  58 VRB3      30.11F
BARTLESVILLE   MOSUNNY   83  71  67 VRB3      30.11F
MUSKOGEE       CLOUDY    80  69  69 S6        30.15R
$$

OKZ032-040>043-046>053-073>077-291800-
SOUTH CENTRAL/SOUTHEAST OKLAHOMA

CITY           SKY/WX    TMP DP  RH WIND       PRES   REMARKS
ARDMORE/DWNTWN MOSUNNY   79  63  57 E3        30.11F
MCALESTER      CLOUDY    81  70  69 NW3       30.15F
$$





USA.gov is the U.S. government's official web portal to all federal, state and local government web resources and services.